TimeAEST,TemperatureF,Dew PointF,Humidity,Sea Level PressureIn,VisibilityMPH,Wind Direction,Wind SpeedMPH,Gust SpeedMPH,PrecipitationIn,Events,Conditions,WindDirDegrees,DateUTC
12:00 AM,78,71,72,29.74,,South,9.2,,,,,180,2013-01-08 14:00:00
12:00 AM,78.8,69.8,74,29.74,6.2,South,9.2,-,N/A,,Partly Cloudy,180,2013-01-08 14:00:00
12:30 AM,77.0,71.6,83,29.71,6.2,South,8.1,-,N/A,Rain,Light Rain Showers,180,2013-01-08 14:30:00
1:00 AM,78,71,72,29.72,,South,5.8,,,,,180,2013-01-08 15:00:00
1:00 AM,78.8,69.8,74,29.71,6.2,South,5.8,-,N/A,,Scattered Clouds,180,2013-01-08 15:00:00
1:30 AM,77.0,71.6,83,29.71,6.2,SE,9.2,-,N/A,,Scattered Clouds,130,2013-01-08 15:30:00
2:00 AM,77.0,71.6,83,29.68,6.2,SSW,3.5,-,N/A,,Partly Cloudy,200,2013-01-08 16:00:00
2:30 AM,77.0,71.6,83,29.68,6.2,South,5.8,-,N/A,,Partly Cloudy,170,2013-01-08 16:30:00
3:00 AM,76,71,82,29.68,,SE,10.4,,,,Overcast,130,2013-01-08 17:00:00
3:00 AM,77.0,71.6,83,29.68,6.2,SE,10.4,-,N/A,,Scattered Clouds,130,2013-01-08 17:00:00
3:30 AM,75.2,71.6,89,29.68,6.2,SSE,6.9,-,N/A,,Partly Cloudy,160,2013-01-08 17:30:00
4:00 AM,75,72,86,29.69,,SE,10.4,,,,,130,2013-01-08 18:00:00
4:00 AM,75.2,71.6,89,29.68,6.2,SE,10.4,-,N/A,,Partly Cloudy,130,2013-01-08 18:00:00
4:30 AM,75.2,71.6,89,29.68,6.2,SE,9.2,-,N/A,,Partly Cloudy,130,2013-01-08 18:30:00
5:00 AM,75.2,71.6,89,29.68,6.2,SE,8.1,-,N/A,,Partly Cloudy,140,2013-01-08 19:00:00
5:30 AM,75.2,69.8,83,29.71,6.2,SSE,10.4,-,N/A,,Mostly Cloudy,150,2013-01-08 19:30:00
6:00 AM,75,71,85,29.72,19,SSE,8.1,,,,Partly Cloudy,160,2013-01-08 20:00:00
6:00 AM,75.2,71.6,89,29.71,6.2,SSE,8.1,-,N/A,,Mostly Cloudy,160,2013-01-08 20:00:00
6:30 AM,75.2,71.6,89,29.71,6.2,South,4.6,-,N/A,,Mostly Cloudy,170,2013-01-08 20:30:00
7:00 AM,77,71,78,29.74,,East,2.3,,,,,90,2013-01-08 21:00:00
7:00 AM,77.0,71.6,83,29.74,6.2,East,2.3,-,N/A,,Mostly Cloudy,90,2013-01-08 21:00:00
7:30 AM,77.0,71.6,83,29.74,6.2,SSE,6.9,-,N/A,,Mostly Cloudy,150,2013-01-08 21:30:00
8:00 AM,82.4,71.6,70,29.74,6.2,South,1.2,-,N/A,,Mostly Cloudy,190,2013-01-08 22:00:00
8:30 AM,82.4,69.8,66,29.74,6.2,SSE,6.9,-,N/A,,Mostly Cloudy,160,2013-01-08 22:30:00
9:00 AM,85,71,55,29.75,19,South,6.9,,,,Partly Cloudy,180,2013-01-08 23:00:00
9:00 AM,84.2,71.6,66,29.74,6.2,South,6.9,-,N/A,,Mostly Cloudy,180,2013-01-08 23:00:00
9:30 AM,84.2,71.6,66,29.74,6.2,South,5.8,-,N/A,,Mostly Cloudy,170,2013-01-08 23:30:00
10:00 AM,85,71,54,29.74,,ESE,6.9,,,,,110,2013-01-09 00:00:00
10:00 AM,86.0,71.6,62,29.71,6.2,ESE,6.9,-,N/A,,Scattered Clouds,110,2013-01-09 00:00:00
10:30 AM,87.8,71.6,58,29.71,6.2,ESE,4.6,-,N/A,,Scattered Clouds,110,2013-01-09 00:30:00
11:00 AM,87.8,71.6,58,29.71,6.2,NNE,9.2,-,N/A,,Scattered Clouds,20,2013-01-09 01:00:00
11:30 AM,87.8,73.4,62,29.68,6.2,NE,11.5,-,N/A,,Scattered Clouds,50,2013-01-09 01:30:00
12:00 PM,86,73,58,29.69,19,ENE,10.4,,,,Partly Cloudy,60,2013-01-09 02:00:00
12:00 PM,86.0,73.4,66,29.68,6.2,ENE,10.4,-,N/A,,Mostly Cloudy,60,2013-01-09 02:00:00
12:30 PM,86.0,73.4,66,29.68,6.2,NE,11.5,-,N/A,,Mostly Cloudy,50,2013-01-09 02:30:00
1:00 PM,87,74,57,29.68,,NE,10.4,,,,,50,2013-01-09 03:00:00
1:00 PM,86.0,73.4,66,29.65,6.2,NE,10.4,-,N/A,,Mostly Cloudy,50,2013-01-09 03:00:00
1:30 PM,86.0,73.4,66,29.65,6.2,NNE,10.4,-,N/A,,Scattered Clouds,30,2013-01-09 03:30:00
2:00 PM,86.0,73.4,66,29.62,6.2,NNE,10.4,-,N/A,,Scattered Clouds,20,2013-01-09 04:00:00
2:30 PM,86.0,73.4,66,29.62,6.2,NNE,10.4,-,N/A,,Partly Cloudy,20,2013-01-09 04:30:00
3:00 PM,85,73,59,29.62,19,NNE,9.2,,,,Partly Cloudy,30,2013-01-09 05:00:00
3:00 PM,86.0,73.4,66,29.62,6.2,NNE,9.2,-,N/A,,Partly Cloudy,30,2013-01-09 05:00:00
3:30 PM,86.0,73.4,66,29.59,6.2,NE,9.2,-,N/A,,Partly Cloudy,40,2013-01-09 05:30:00
4:00 PM,86,73,57,29.62,,NNE,8.1,,,,,30,2013-01-09 06:00:00
4:00 PM,86.0,73.4,66,29.59,6.2,NNE,8.1,-,N/A,,Partly Cloudy,30,2013-01-09 06:00:00
4:30 PM,86.0,71.6,62,29.59,6.2,NNE,8.1,-,N/A,,Partly Cloudy,30,2013-01-09 06:30:00
5:00 PM,86.0,73.4,66,29.62,6.2,NE,8.1,-,N/A,,Partly Cloudy,40,2013-01-09 07:00:00
5:30 PM,84.2,71.6,66,29.62,6.2,NNE,8.1,-,N/A,,Scattered Clouds,30,2013-01-09 07:30:00
6:00 PM,84,72,60,29.63,,NNE,6.9,,,,,20,2013-01-09 08:00:00
6:00 PM,84.2,71.6,66,29.62,6.2,NNE,6.9,-,N/A,,Partly Cloudy,20,2013-01-09 08:00:00
6:30 PM,82.4,71.6,70,29.62,6.2,North,6.9,-,N/A,,Scattered Clouds,10,2013-01-09 08:30:00
7:00 PM,82,72,66,29.65,,North,5.8,,,,,10,2013-01-09 09:00:00
7:00 PM,82.4,73.4,74,29.65,-9999.0,North,5.8,-,N/A,,Clear,10,2013-01-09 09:00:00
7:30 PM,80.6,73.4,79,29.65,6.2,North,5.8,-,N/A,,Scattered Clouds,360,2013-01-09 09:30:00
8:00 PM,80.6,73.4,79,29.65,6.2,NW,4.6,-,N/A,,Scattered Clouds,310,2013-01-09 10:00:00
8:30 PM,80.6,73.4,79,29.68,6.2,West,3.5,-,N/A,,Partly Cloudy,270,2013-01-09 10:30:00
9:00 PM,80,73,73,29.69,,West,4.6,,,,,280,2013-01-09 11:00:00
9:00 PM,80.6,73.4,79,29.68,6.2,West,4.6,-,N/A,,Partly Cloudy,280,2013-01-09 11:00:00
9:30 PM,78.8,73.4,83,29.68,6.2,WNW,4.6,-,N/A,,Partly Cloudy,290,2013-01-09 11:30:00
10:00 PM,79,73,78,29.70,,West,5.8,,,,,280,2013-01-09 12:00:00
10:00 PM,78.8,73.4,83,29.68,6.2,West,5.8,-,N/A,,Partly Cloudy,280,2013-01-09 12:00:00
10:30 PM,78.8,73.4,83,29.68,6.2,West,5.8,-,N/A,,Partly Cloudy,280,2013-01-09 12:30:00
11:00 PM,78.8,73.4,83,29.68,6.2,West,5.8,-,N/A,,Partly Cloudy,280,2013-01-09 13:00:00
11:30 PM,77.0,73.4,89,29.68,6.2,West,5.8,-,N/A,,Partly Cloudy,280,2013-01-09 13:30:00